Weather History for PABI - March, 2012

Change the Weather History Date:

Friday, March 23, 2012

  Actual Average (WUND) Record (WUND)
Temperature  
Mean Temperature 0 °F -  
Max Temperature 21 °F - - (-1)
Min Temperature -20 °F - - (-1)
Degree Days  
Heating Degree Days 64    
Moisture  
Dew Point -7 °F    
Average Humidity 62    
Maximum Humidity 82    
Minimum Humidity 42    
Precipitation  
Precipitation 0.01 in - - ()
Sea Level Pressure  
Sea Level Pressure 30.07 in    
Wind  
Wind Speed 8 mph (ESE)    
Max Wind Speed 21 mph    
Max Gust Speed 29 mph    
Visibility 10 miles    
Events      
Averages and records for this station are not official NWS values.
T = Trace of Precipitation, MM = Missing Value Source: NWS Daily Summary

Daily Weather History Graph

Daily Weather History Graph

Search for Another Location

Airport or City:

Trip Planner

Search our weather history database for the weather conditions in past years. The results will help you decide how hot, cold, wet, or windy it might be!

Date:

Astronomy

Mar. 23, 2012 Rise Set
Actual Time 7:30 AM AKDT 8:09 PM AKDT
Civil Twilight 6:42 AM AKDT 8:57 PM AKDT
Nautical Twilight 5:43 AM AKDT 9:57 PM AKDT
Astronomical Twilight 4:34 AM AKDT 11:07 PM AKDT
Moon 7:04 AM AKDT (3/23) 10:34 PM AKDT (3/23)
Length of Visible Light 14h 15m
Length of Day
12h 39m
New Moon, 1% of the Moon is Illuminated
Mar 23
New Moon
Mar 30
First Quarter
Apr 6
Full
Apr 13
Last Quarter
Apr 20
New

Hourly Weather History & Observations

Time (AKDT) Temp. Windchill Dew Point Humidity Pressure Visibility Wind Dir Wind Speed Gust Speed Precip Events Conditions
12:53 AM -8.0 °F -21.0 °F -14.1 °F 75% 30.26 in 10.0 mi South 5.8 mph - N/A   Clear
1:53 AM -11.0 °F -24.6 °F -17.0 °F 75% 30.26 in 10.0 mi SSE 5.8 mph - N/A   Clear
2:53 AM -11.0 °F -22.8 °F -16.1 °F 78% 30.25 in 10.0 mi SSE 4.6 mph - N/A   Clear
3:53 AM -16.1 °F - -20.9 °F 79% 30.24 in 10.0 mi Calm Calm - N/A   Clear
4:53 AM -17.0 °F -27.2 °F -23.1 °F 74% 30.22 in 10.0 mi ESE 3.5 mph - N/A   Clear
5:53 AM -20.0 °F - -25.1 °F 78% 30.21 in 10.0 mi Calm Calm - N/A   Clear
6:53 AM -15.0 °F - -18.9 °F 82% 30.18 in 10.0 mi Calm Calm - N/A   Partly Cloudy
7:53 AM -18.0 °F - -22.0 °F 82% 30.18 in 10.0 mi Calm Calm - N/A   Clear
8:53 AM -13.0 °F - -17.0 °F 82% 30.16 in 10.0 mi Calm Calm - N/A   Partly Cloudy
9:53 AM -9.0 °F - -14.1 °F 79% 30.14 in 10.0 mi Calm Calm - N/A   Scattered Clouds
10:30 AM 5.0 °F -14.2 °F -4.0 °F 66% 29.94 in 10.0 mi ESE 17.3 mph - N/A   Scattered Clouds
10:53 AM 7.0 °F -13.1 °F -2.9 °F 64% 30.09 in 10.0 mi ESE 20.7 mph - N/A   Scattered Clouds
11:53 AM 10.0 °F -9.1 °F -2.0 °F 58% 30.06 in 10.0 mi ESE 20.7 mph 28.8 mph N/A   Scattered Clouds
12:53 PM 12.9 °F -4.9 °F -0.0 °F 56% 30.04 in 10.0 mi ESE 19.6 mph - N/A   Scattered Clouds
1:53 PM 16.0 °F -0.4 °F -0.0 °F 49% 30.02 in 10.0 mi ESE 18.4 mph - N/A   Scattered Clouds
2:53 PM 18.0 °F 3.6 °F 1.0 °F 48% 30.00 in 10.0 mi ESE 15.0 mph - N/A   Mostly Cloudy
3:53 PM 21.0 °F 8.1 °F 1.9 °F 44% 29.98 in 10.0 mi East 13.8 mph - N/A   Mostly Cloudy
4:53 PM 21.9 °F 8.2 °F 1.9 °F 42% 29.96 in 10.0 mi ESE 16.1 mph - N/A   Mostly Cloudy
5:53 PM 21.9 °F 10.4 °F 3.9 °F 46% 29.95 in 10.0 mi ESE 11.5 mph - N/A   Mostly Cloudy
6:53 PM 21.9 °F 8.7 °F 3.0 °F 44% 29.94 in 10.0 mi ESE 15.0 mph - 0.01 in   Mostly Cloudy
7:53 PM 21.0 °F 9.9 °F 3.0 °F 46% 29.94 in 10.0 mi ESE 10.4 mph - N/A   Mostly Cloudy
8:53 PM 19.9 °F 9.3 °F 3.9 °F 50% 29.94 in 10.0 mi East 9.2 mph - N/A   Mostly Cloudy
9:53 PM 19.9 °F 8.6 °F 3.9 °F 50% 29.93 in 10.0 mi ESE 10.4 mph - N/A   Overcast
10:53 PM 19.0 °F 7.5 °F 3.9 °F 52% 29.92 in 10.0 mi East 10.4 mph - N/A   Mostly Cloudy
11:53 PM 19.0 °F 7.5 °F 3.9 °F 52% 29.92 in 10.0 mi ESE 10.4 mph - N/A   Overcast